Voltar ao catálogo

SL-16 DEB

AtivoLEO
NORAD 39305·DEBRIS·🇷🇺 Russia

Lançado Dec 25, 1992 de Baikonur Cosmodrome

Loading…

Próximas Passagens (próximas 24 horas)

TLE

AtualizadoSource: Space-Track

Época: Sep 14, 2026, 10:43 UTC

1 39305U 92093JW  26257.44683786  .00000197  00000-0  15281-3 0  9998
2 39305  70.9623 176.5554 0093225 235.4835 123.7453 14.02469410269758

Acompanhe SL-16 DEB em tempo real com AllMySat

Download on the App Store